When you browse on this site, cookies collect data to enhance your experience and personalize the content and advertising you see.
Visit our Privacy Policy to learn more. By continuing to use the site, you agree to this use of cookies and data.
  • In Hungary
  • List of Countries
  • For 7 days
  • Water Temperature
  • Satellite Maps
  • Weather Map
  • News
  • Weather Widgets
  • user-avatar
    Login

    Hourly Weather Jos

    Today, 18 November, Sunday

    Time Temperature Precipitation Wind Pressure Humidity
    00:00 +21°C° 0 mm 1 mps 657 mmHg 32%
    01:00 +20°C° 0 mm 1 mps 657 mmHg 33%
    02:00 +20°C° 0 mm 1 mps 657 mmHg 34%
    03:00 +20°C° 0 mm 1 mps 657 mmHg 34%
    04:00 +19°C° 0 mm 1 mps 657 mmHg 35%
    05:00 +19°C° 0 mm 1 mps 657 mmHg 35%
    06:00 +19°C° 0 mm 1 mps 657 mmHg 36%
    07:00 +19°C° 0 mm 1 mps 657 mmHg 37%
    08:00 +22°C° 0 mm 1 mps 658 mmHg 32%
    09:00 +25°C° 0 mm 2 mps 659 mmHg 27%
    10:00 +28°C° 0 mm 2 mps 660 mmHg 22%
    11:00 +30°C° 0 mm 2 mps 660 mmHg 21%
    12:00 +31°C° 0 mm 2 mps 660 mmHg 19%
    13:00 +33°C° 0 mm 3 mps 659 mmHg 18%
    14:00 +33°C° 0 mm 3 mps 659 mmHg 18%
    15:00 +33°C° 0 mm 3 mps 658 mmHg 18%
    16:00 +33°C° 0 mm 3 mps 657 mmHg 18%
    17:00 +30°C° 0 mm 2 mps 657 mmHg 20%
    18:00 +27°C° 0 mm 2 mps 657 mmHg 23%
    19:00 +25°C° 0 mm 1 mps 656 mmHg 26%
    20:00 +24°C° 0 mm 1 mps 657 mmHg 27%
    21:00 +24°C° 0 mm 1 mps 657 mmHg 28%
    22:00 +23°C° 0 mm 1 mps 657 mmHg 28%
    23:00 +22°C° 0 mm 1 mps 657 mmHg 29%

    Tomorrow, 19 November, Monday

    Time Temperature Precipitation Wind Pressure Humidity
    00:00 +22°C° 0 mm 1 mps 657 mmHg 30%
    01:00 +21°C° 0 mm 1 mps 657 mmHg 31%
    02:00 +21°C° 0 mm 1 mps 657 mmHg 31%
    03:00 +21°C° 0 mm 1 mps 657 mmHg 31%
    04:00 +20°C° 0 mm 1 mps 656 mmHg 31%
    05:00 +20°C° 0 mm 1 mps 656 mmHg 31%
    06:00 +20°C° 0 mm 1 mps 657 mmHg 32%
    07:00 +19°C° 0 mm 2 mps 657 mmHg 32%
    08:00 +23°C° 0 mm 2 mps 658 mmHg 28%
    09:00 +26°C° 0 mm 3 mps 659 mmHg 24%
    10:00 +29°C° 0 mm 3 mps 660 mmHg 20%
    11:00 +30°C° 0 mm 3 mps 660 mmHg 19%
    12:00 +33°C° 0 mm 3 mps 659 mmHg 18%
    13:00 +34°C° 0 mm 3 mps 659 mmHg 17%
    14:00 +34°C° 0 mm 3 mps 658 mmHg 17%
    15:00 +33°C° 0 mm 3 mps 658 mmHg 17%
    16:00 +32°C° 0 mm 2 mps 657 mmHg 17%
    17:00 +30°C° 0 mm 2 mps 657 mmHg 20%
    18:00 +28°C° 0 mm 2 mps 657 mmHg 23%
    19:00 +25°C° 0 mm 1 mps 656 mmHg 25%
    20:00 +25°C° 0 mm 1 mps 657 mmHg 26%
    21:00 +24°C° 0 mm 1 mps 657 mmHg 27%
    22:00 +23°C° 0 mm 1 mps 657 mmHg 27%
    23:00 +23°C° 0 mm 1 mps 657 mmHg 28%

    Day after tomorrow, 20 November, Tuesday

    Time Temperature Precipitation Wind Pressure Humidity
    00:00 +22°C° 0 mm 1 mps 657 mmHg 29%
    01:00 +22°C° 0 mm 1 mps 657 mmHg 30%
    02:00 +21°C° 0 mm 1 mps 656 mmHg 30%
    03:00 +21°C° 0 mm 1 mps 656 mmHg 31%
    04:00 +21°C° 0 mm 1 mps 656 mmHg 31%
    05:00 +21°C° 0 mm 1 mps 656 mmHg 31%
    06:00 +21°C° 0 mm 1 mps 657 mmHg 30%
    07:00 +20°C° 0 mm 2 mps 657 mmHg 30%
    08:00 +24°C° 0 mm 2 mps 658 mmHg 26%
    09:00 +27°C° 0 mm 3 mps 660 mmHg 22%
    10:00 +30°C° 0 mm 4 mps 661 mmHg 17%
    11:00 +31°C° 0 mm 3 mps 660 mmHg 17%
    12:00 +33°C° 0 mm 3 mps 660 mmHg 16%
    13:00 +34°C° 0 mm 3 mps 660 mmHg 15%
    14:00 +34°C° 0 mm 3 mps 659 mmHg 15%
    15:00 +34°C° 0 mm 3 mps 658 mmHg 15%
    16:00 +34°C° 0 mm 3 mps 658 mmHg 15%
    17:00 +31°C° 0 mm 2 mps 657 mmHg 17%
    18:00 +28°C° 0 mm 2 mps 657 mmHg 20%
    19:00 +26°C° 0 mm 1 mps 657 mmHg 22%
    20:00 +25°C° 0 mm 1 mps 657 mmHg 23%
    21:00 +24°C° 0 mm 1 mps 657 mmHg 23%
    22:00 +24°C° 0 mm 1 mps 658 mmHg 24%
    23:00 +23°C° 0 mm 1 mps 657 mmHg 24%

    21 November, Wednesday

    Time Temperature Precipitation Wind Pressure Humidity
    00:00 +23°C° 0 mm 1 mps 657 mmHg 24%
    01:00 +22°C° 0 mm 1 mps 657 mmHg 24%
    02:00 +22°C° 0 mm 1 mps 657 mmHg 23%
    03:00 +21°C° 0 mm 1 mps 656 mmHg 23%
    04:00 +21°C° 0 mm 1 mps 656 mmHg 22%
    05:00 +21°C° 0 mm 1 mps 657 mmHg 22%
    06:00 +21°C° 0 mm 1 mps 657 mmHg 22%
    07:00 +21°C° 0 mm 1 mps 657 mmHg 22%
    08:00 +24°C° 0 mm 2 mps 658 mmHg 20%
    09:00 +27°C° 0 mm 2 mps 659 mmHg 17%
    10:00 +30°C° 0 mm 3 mps 661 mmHg 14%
    11:00 +31°C° 0 mm 3 mps 660 mmHg 14%
    12:00 +33°C° 0 mm 3 mps 660 mmHg 13%
    13:00 +35°C° 0 mm 2 mps 659 mmHg 12%
    14:00 +34°C° 0 mm 2 mps 659 mmHg 13%
    15:00 +34°C° 0 mm 2 mps 658 mmHg 13%
    16:00 +34°C° 0 mm 2 mps 657 mmHg 13%
    17:00 +31°C° 0 mm 2 mps 657 mmHg 15%
    18:00 +28°C° 0 mm 1 mps 657 mmHg 18%
    19:00 +26°C° 0 mm 1 mps 656 mmHg 21%
    20:00 +25°C° 0 mm 1 mps 657 mmHg 22%
    21:00 +24°C° 0 mm 1 mps 657 mmHg 23%
    22:00 +23°C° 0 mm 1 mps 657 mmHg 24%
    23:00 +23°C° 0 mm 1 mps 657 mmHg 24%

    22 November, Thursday

    Time Temperature Precipitation Wind Pressure Humidity
    00:00 +20°C° 0 mm 0 mps 657 mmHg 25%
    01:00 +20°C° 0 mm 0 mps 657 mmHg 26%
    02:00 +21°C° 0 mm 1 mps 656 mmHg 27%
    03:00 +21°C° 0 mm 1 mps 656 mmHg 27%
    04:00 +20°C° 0 mm 1 mps 656 mmHg 28%
    05:00 +20°C° 0 mm 1 mps 656 mmHg 28%
    06:00 +20°C° 0 mm 1 mps 657 mmHg 28%
    07:00 +20°C° 0 mm 1 mps 657 mmHg 28%
    08:00 +23°C° 0 mm 1 mps 658 mmHg 23%
    09:00 +26°C° 0 mm 2 mps 659 mmHg 18%
    10:00 +29°C° 0 mm 3 mps 660 mmHg 13%
    11:00 +30°C° 0 mm 3 mps 660 mmHg 13%
    12:00 +31°C° 0 mm 3 mps 659 mmHg 12%
    13:00 +34°C° 0 mm 2 mps 659 mmHg 11%
    14:00 +34°C° 0 mm 2 mps 658 mmHg 11%
    15:00 +32°C° 0 mm 2 mps 658 mmHg 11%
    16:00 +32°C° 0 mm 2 mps 657 mmHg 11%
    17:00 +30°C° 0 mm 2 mps 657 mmHg 13%
    18:00 +27°C° 0 mm 2 mps 657 mmHg 15%
    19:00 +25°C° 0 mm 1 mps 657 mmHg 18%
    20:00 +24°C° 0 mm 1 mps 657 mmHg 18%
    21:00 +23°C° 0 mm 1 mps 657 mmHg 19%
    22:00 +22°C° 0 mm 1 mps 657 mmHg 20%
    23:00 +22°C° 0 mm 1 mps 657 mmHg 21%

    23 November, Friday

    Time Temperature Precipitation Wind Pressure Humidity
    00:00 +21°C° 0 mm 1 mps 657 mmHg 22%
    01:00 +21°C° 0 mm 1 mps 657 mmHg 23%
    02:00 +20°C° 0 mm 1 mps 656 mmHg 24%
    03:00 +20°C° 0 mm 1 mps 656 mmHg 24%
    04:00 +20°C° 0 mm 1 mps 656 mmHg 25%
    05:00 +20°C° 0 mm 1 mps 657 mmHg 25%
    06:00 +20°C° 0 mm 1 mps 657 mmHg 25%
    07:00 +20°C° 0 mm 1 mps 658 mmHg 25%
    08:00 +22°C° 0 mm 1 mps 659 mmHg 21%
    09:00 +25°C° 0 mm 2 mps 659 mmHg 18%
    10:00 +28°C° 0 mm 2 mps 660 mmHg 15%
    11:00 +29°C° 0 mm 2 mps 660 mmHg 13%
    12:00 +31°C° 0 mm 2 mps 659 mmHg 12%
    13:00 +33°C° 0 mm 3 mps 659 mmHg 11%
    14:00 +32°C° 0 mm 2 mps 659 mmHg 11%
    15:00 +32°C° 0 mm 2 mps 658 mmHg 11%
    16:00 +31°C° 0 mm 2 mps 657 mmHg 11%
    17:00 +29°C° 0 mm 2 mps 657 mmHg 13%
    18:00 +27°C° 0 mm 2 mps 657 mmHg 16%
    19:00 +24°C° 0 mm 1 mps 657 mmHg 18%
    20:00 +24°C° 0 mm 1 mps 657 mmHg 18%
    21:00 +23°C° 0 mm 1 mps 657 mmHg 18%
    22:00 +22°C° 0 mm 1 mps 657 mmHg 18%
    23:00 +22°C° 0 mm 1 mps 657 mmHg 19%
    Show more